Location: Buenos Aires
(34.6076°S, 58.4371°W)
Time: 13:53:09
(UTC-03:00)

Envisat - Pass Details

Date: 01 July 2021
Orbit: 764 x 766 km, 98.2° (Epoch: 03 August)

Event Time Altitude Azimuth Distance (km) Brightness Sun altitude
Rises 04:39:38 0° 41° (NE) 3,222 6.7 -40.7°
Reaches altitude 10° 04:42:11 10° 52° (NE) 2,305 6.0 -40.1°
Enters shadow 04:43:50 18° 66° (ENE) 1,796 5.4 -39.8°
